• In Romania
  • List of Countries
  • For 7 days
  • Water Temperature
  • Satellite Maps
  • Weather Map
  • Weather Widgets
  • user-avatar
    Login

    Hourly Weather Slepcovka

    Today, 15 August, Wednesday

    Time Temperature Precipitation Wind Pressure Humidity
    00:00 +18°C° 0 mm 1 mps 742 mmHg 74%
    01:00 +16°C° 0 mm 1 mps 742 mmHg 76%
    02:00 +16°C° 0 mm 1 mps 743 mmHg 77%
    03:00 +16°C° 0 mm 1 mps 743 mmHg 78%
    04:00 +16°C° 0 mm 1 mps 743 mmHg 77%
    05:00 +15°C° 0 mm 0 mps 743 mmHg 76%
    06:00 +16°C° 0 mm 0 mps 744 mmHg 75%
    07:00 +18°C° 0 mm 0 mps 744 mmHg 67%
    08:00 +20°C° 0 mm 0 mps 744 mmHg 60%
    09:00 +24°C° 0 mm 1 mps 744 mmHg 53%
    10:00 +25°C° 0 mm 1 mps 744 mmHg 48%
    11:00 +26°C° 0 mm 1 mps 744 mmHg 44%
    12:00 +27°C° 0 mm 1 mps 744 mmHg 39%
    13:00 +27°C° 0 mm 1 mps 744 mmHg 38%
    14:00 +27°C° 0 mm 1 mps 744 mmHg 36%
    15:00 +28°C° 0 mm 1 mps 744 mmHg 35%
    16:00 +27°C° 0 mm 1 mps 744 mmHg 38%
    17:00 +27°C° 0 mm 1 mps 744 mmHg 41%
    18:00 +26°C° 0 mm 1 mps 743 mmHg 44%
    19:00 +25°C° 0 mm 1 mps 743 mmHg 46%
    20:00 +23°C° 0 mm 1 mps 743 mmHg 47%
    21:00 +21°C° 0 mm 1 mps 743 mmHg 49%
    22:00 +21°C° 0 mm 1 mps 743 mmHg 50%
    23:00 +19°C° 0 mm 2 mps 743 mmHg 50%

    Tomorrow, 16 August, Thursday

    Time Temperature Precipitation Wind Pressure Humidity
    00:00 +19°C° 0 mm 2 mps 743 mmHg 51%
    01:00 +19°C° 0 mm 2 mps 743 mmHg 51%
    02:00 +18°C° 0 mm 2 mps 743 mmHg 52%
    03:00 +18°C° 0 mm 2 mps 743 mmHg 52%
    04:00 +18°C° 0 mm 2 mps 743 mmHg 54%
    05:00 +18°C° 0 mm 2 mps 743 mmHg 55%
    06:00 +18°C° 0 mm 2 mps 743 mmHg 57%
    07:00 +21°C° 0 mm 2 mps 743 mmHg 52%
    08:00 +24°C° 0 mm 3 mps 743 mmHg 48%
    09:00 +26°C° 0 mm 3 mps 744 mmHg 44%
    10:00 +27°C° 0 mm 3 mps 744 mmHg 42%
    11:00 +28°C° 0 mm 3 mps 743 mmHg 40%
    12:00 +30°C° 0 mm 3 mps 743 mmHg 38%
    13:00 +30°C° 0 mm 3 mps 743 mmHg 37%
    14:00 +30°C° 0 mm 3 mps 743 mmHg 36%
    15:00 +31°C° 0 mm 2 mps 743 mmHg 35%
    16:00 +30°C° 0 mm 2 mps 742 mmHg 38%
    17:00 +29°C° 0 mm 2 mps 742 mmHg 41%
    18:00 +29°C° 0 mm 1 mps 742 mmHg 44%
    19:00 +27°C° 0 mm 1 mps 742 mmHg 47%
    20:00 +25°C° 0 mm 1 mps 742 mmHg 49%
    21:00 +23°C° 0 mm 1 mps 742 mmHg 51%
    22:00 +23°C° 0 mm 1 mps 742 mmHg 51%
    23:00 +23°C° 0 mm 1 mps 742 mmHg 52%

    Day after tomorrow, 17 August, Friday

    Time Temperature Precipitation Wind Pressure Humidity
    00:00 +22°C° 0 mm 1 mps 742 mmHg 52%
    01:00 +22°C° 0 mm 1 mps 742 mmHg 53%
    02:00 +22°C° 0 mm 1 mps 742 mmHg 54%
    03:00 +21°C° 0 mm 1 mps 742 mmHg 55%
    04:00 +21°C° 0 mm 1 mps 742 mmHg 56%
    05:00 +21°C° 0 mm 1 mps 742 mmHg 58%
    06:00 +21°C° 0 mm 1 mps 742 mmHg 59%
    07:00 +23°C° 0 mm 1 mps 742 mmHg 54%
    08:00 +25°C° 0 mm 1 mps 742 mmHg 49%
    09:00 +27°C° 0 mm 1 mps 742 mmHg 44%
    10:00 +28°C° 0 mm 1 mps 742 mmHg 42%
    11:00 +29°C° 0 mm 1 mps 742 mmHg 40%
    12:00 +30°C° 0 mm 1 mps 742 mmHg 38%
    13:00 +30°C° 0 mm 2 mps 742 mmHg 40%
    14:00 +30°C° 0 mm 2 mps 742 mmHg 41%
    15:00 +30°C° 0 mm 2 mps 741 mmHg 42%
    16:00 +28°C° 0 mm 3 mps 741 mmHg 49%
    17:00 +27°C° 0 mm 3 mps 741 mmHg 56%
    18:00 +26°C° 0 mm 4 mps 741 mmHg 63%
    19:00 +23°C° 1.2 mm 4 mps 741 mmHg 71%
    20:00 +21°C° 1.2 mm 4 mps 742 mmHg 79%
    21:00 +19°C° 1.2 mm 4 mps 742 mmHg 87%
    22:00 +19°C° 0.2 mm 4 mps 742 mmHg 87%
    23:00 +18°C° 0.2 mm 4 mps 742 mmHg 88%

    18 August, Saturday

    Time Temperature Precipitation Wind Pressure Humidity
    00:00 +17°C° 0.2 mm 5 mps 742 mmHg 88%
    01:00 +17°C° 0 mm 4 mps 742 mmHg 87%
    02:00 +15°C° 0 mm 4 mps 743 mmHg 86%
    03:00 +15°C° 0 mm 4 mps 743 mmHg 85%
    04:00 +14°C° 0 mm 4 mps 743 mmHg 84%
    05:00 +14°C° 0 mm 5 mps 743 mmHg 83%
    06:00 +14°C° 0 mm 5 mps 744 mmHg 81%
    07:00 +16°C° 0 mm 5 mps 744 mmHg 73%
    08:00 +17°C° 0 mm 6 mps 744 mmHg 64%
    09:00 +19°C° 0 mm 6 mps 744 mmHg 55%
    10:00 +20°C° 0 mm 6 mps 744 mmHg 52%
    11:00 +21°C° 0 mm 6 mps 744 mmHg 48%
    12:00 +22°C° 0 mm 5 mps 744 mmHg 44%
    13:00 +23°C° 0 mm 5 mps 744 mmHg 44%
    14:00 +23°C° 0 mm 5 mps 744 mmHg 43%
    15:00 +23°C° 0 mm 5 mps 744 mmHg 42%
    16:00 +22°C° 0 mm 5 mps 744 mmHg 46%
    17:00 +22°C° 0 mm 4 mps 744 mmHg 50%
    18:00 +21°C° 0 mm 4 mps 744 mmHg 54%
    19:00 +19°C° 0 mm 4 mps 745 mmHg 58%
    20:00 +18°C° 0 mm 4 mps 745 mmHg 61%
    21:00 +16°C° 0 mm 3 mps 745 mmHg 65%
    22:00 +14°C° 0 mm 3 mps 745 mmHg 67%
    23:00 +14°C° 0 mm 3 mps 745 mmHg 68%

    19 August, Sunday

    Time Temperature Precipitation Wind Pressure Humidity
    00:00 +13°C° 0 mm 3 mps 745 mmHg 70%
    01:00 +12°C° 0 mm 3 mps 745 mmHg 72%
    02:00 +12°C° 0 mm 3 mps 745 mmHg 75%
    03:00 +11°C° 0 mm 3 mps 746 mmHg 77%
    04:00 +11°C° 0 mm 3 mps 746 mmHg 78%
    05:00 +11°C° 0 mm 3 mps 746 mmHg 78%
    06:00 +11°C° 0 mm 3 mps 746 mmHg 79%
    07:00 +13°C° 0 mm 3 mps 746 mmHg 71%
    08:00 +15°C° 0 mm 4 mps 746 mmHg 64%
    09:00 +18°C° 0 mm 4 mps 746 mmHg 56%
    10:00 +19°C° 0 mm 4 mps 746 mmHg 52%
    11:00 +20°C° 0 mm 4 mps 746 mmHg 47%
    12:00 +21°C° 0 mm 4 mps 746 mmHg 42%
    13:00 +21°C° 0 mm 4 mps 745 mmHg 42%
    14:00 +22°C° 0 mm 4 mps 745 mmHg 41%
    15:00 +22°C° 0 mm 4 mps 745 mmHg 40%
    16:00 +21°C° 0 mm 4 mps 745 mmHg 44%
    17:00 +21°C° 0 mm 3 mps 745 mmHg 49%
    18:00 +20°C° 0 mm 3 mps 745 mmHg 53%
    19:00 +18°C° 0 mm 3 mps 745 mmHg 57%
    20:00 +17°C° 0 mm 3 mps 745 mmHg 61%
    21:00 +15°C° 0 mm 2 mps 745 mmHg 65%
    22:00 +14°C° 0 mm 2 mps 745 mmHg 67%
    23:00 +14°C° 0 mm 2 mps 745 mmHg 69%

    20 August, Monday

    Time Temperature Precipitation Wind Pressure Humidity
    00:00 +13°C° 0 mm 2 mps 745 mmHg 71%
    01:00 +13°C° 0 mm 2 mps 745 mmHg 73%
    02:00 +12°C° 0 mm 2 mps 745 mmHg 75%
    03:00 +12°C° 0 mm 2 mps 745 mmHg 78%
    04:00 +12°C° 0 mm 2 mps 745 mmHg 79%
    05:00 +12°C° 0 mm 2 mps 745 mmHg 79%
    06:00 +12°C° 0 mm 2 mps 745 mmHg 80%
    07:00 +14°C° 0 mm 2 mps 745 mmHg 73%
    08:00 +16°C° 0 mm 2 mps 745 mmHg 66%
    09:00 +18°C° 0 mm 2 mps 745 mmHg 59%
    10:00 +19°C° 0 mm 2 mps 745 mmHg 53%
    11:00 +20°C° 0 mm 2 mps 745 mmHg 48%
    12:00 +23°C° 0 mm 2 mps 745 mmHg 42%
    13:00 +23°C° 0 mm 1 mps 744 mmHg 40%
    14:00 +24°C° 0 mm 1 mps 744 mmHg 38%
    15:00 +24°C° 0 mm 1 mps 744 mmHg 36%
    16:00 +24°C° 0 mm 1 mps 744 mmHg 39%
    17:00 +23°C° 0 mm 1 mps 744 mmHg 42%
    18:00 +23°C° 0 mm 1 mps 743 mmHg 45%
    19:00 +21°C° 0 mm 1 mps 743 mmHg 47%
    20:00 +19°C° 0 mm 1 mps 743 mmHg 49%
    21:00 +18°C° 0 mm 1 mps 743 mmHg 51%
    22:00 +16°C° 0 mm 1 mps 743 mmHg 52%
    23:00 +16°C° 0 mm 1 mps 743 mmHg 53%
    Show more